SBI920 ULLI-UUEE

Flight info

Callsign SBI920
Flight time N/A
Altitude 37000
Route SUGIN1C SUGIN T873 NIRGI T73 NAMIN NAMIN3E
Aircraft A321/M-SDE3FGHIRWY/LB1

Departure

Time 2026-05-07 14:44
Airport Pulkovo Airport (ULLI)

Arrival

Time N/A
Airport Sheremetyevo International Airport (UUEE)
Time Latitude Longitude Altitude Speed Heading
2026-05-07 14:29 59.80032 30.26427 86 ft 0 kts 286°
2026-05-07 14:39 59.80041 30.26369 84 ft 8 kts 288°
2026-05-07 14:39 59.79999 30.26264 85 ft 13 kts 198°
2026-05-07 14:39 59.79889 30.26199 84 ft 19 kts 197°
2026-05-07 14:39 59.79741 30.26113 83 ft 25 kts 196°
2026-05-07 14:40 59.79579 30.25989 83 ft 22 kts 197°
2026-05-07 14:40 59.79560 30.25880 88 ft 7 kts 308°
2026-05-07 14:40 59.79585 30.25766 88 ft 12 kts 288°
2026-05-07 14:40 59.79618 30.25541 85 ft 22 kts 286°
2026-05-07 14:41 59.79668 30.25198 84 ft 30 kts 285°
2026-05-07 14:41 59.79733 30.24759 84 ft 35 kts 287°
2026-05-07 14:41 59.79806 30.24265 84 ft 39 kts 287°
2026-05-07 14:41 59.79885 30.23739 82 ft 42 kts 287°
2026-05-07 14:42 59.79970 30.23170 83 ft 44 kts 287°
2026-05-07 14:42 59.80056 30.22588 75 ft 44 kts 286°
2026-05-07 14:42 59.80113 30.22116 78 ft 27 kts 253°
2026-05-07 14:42 59.79989 30.21967 76 ft 19 kts 136°
2026-05-07 14:43 59.79948 30.22130 74 ft 0 kts 105°
2026-05-07 14:43 59.79946 30.22142 75 ft 6 kts 105°
2026-05-07 14:43 59.79863 30.22714 80 ft 79 kts 106°
2026-05-07 14:44 59.79652 30.24135 87 ft 134 kts 106°
2026-05-07 14:44 59.79353 30.26205 129 ft 174 kts 104°
2026-05-07 14:44 59.78978 30.28640 515 ft 193 kts 105°
2026-05-07 14:44 59.78546 30.31334 964 ft 216 kts 105°
2026-05-07 14:45 59.78082 30.34341 1508 ft 238 kts 105°
2026-05-07 14:45 59.77614 30.37523 2343 ft 246 kts 104°
2026-05-07 14:45 59.77136 30.40799 3325 ft 249 kts 104°
2026-05-07 14:45 59.76651 30.44117 4276 ft 252 kts 104°
2026-05-07 14:46 59.76152 30.47483 5246 ft 255 kts 105°
2026-05-07 14:46 59.75643 30.50889 6180 ft 259 kts 105°
2026-05-07 14:46 59.75124 30.54341 7044 ft 262 kts 106°
2026-05-07 14:46 59.74600 30.57844 7885 ft 267 kts 104°
2026-05-07 14:47 59.74111 30.61387 8672 ft 273 kts 103°
2026-05-07 14:47 59.73623 30.65086 9433 ft 281 kts 103°
2026-05-07 14:47 59.73127 30.68880 10176 ft 288 kts 103°
2026-05-07 14:47 59.72606 30.72858 10503 ft 310 kts 103°
2026-05-07 14:48 59.72041 30.77146 10754 ft 333 kts 104°
2026-05-07 14:48 59.71426 30.81748 10948 ft 356 kts 104°
2026-05-07 14:48 59.70766 30.86642 11079 ft 379 kts 105°
2026-05-07 14:48 59.70067 30.91765 11276 ft 397 kts 106°
2026-05-07 14:49 59.69335 30.97096 11772 ft 405 kts 106°
2026-05-07 14:49 59.68590 31.02526 12334 ft 411 kts 106°
2026-05-07 14:49 59.67834 31.08032 12885 ft 417 kts 107°
2026-05-07 14:49 59.67063 31.13620 13438 ft 422 kts 107°
2026-05-07 14:50 59.66283 31.19258 13956 ft 428 kts 107°
2026-05-07 14:50 59.65498 31.24896 14423 ft 433 kts 107°
2026-05-07 14:50 59.64682 31.30734 14905 ft 437 kts 108°
2026-05-07 14:50 59.63875 31.36490 15359 ft 442 kts 108°
2026-05-07 14:51 59.63049 31.42374 15820 ft 447 kts 108°
2026-05-07 14:51 59.62210 31.48315 16313 ft 450 kts 108°
2026-05-07 14:51 59.61361 31.54323 16742 ft 455 kts 108°
2026-05-07 14:51 59.60506 31.60373 17146 ft 460 kts 109°
2026-05-07 14:52 59.59639 31.66490 17574 ft 465 kts 109°
2026-05-07 14:52 59.58760 31.72652 18023 ft 469 kts 109°
2026-05-07 14:52 59.57866 31.78880 18446 ft 474 kts 109°
2026-05-07 14:52 59.56958 31.85164 18821 ft 478 kts 109°
2026-05-07 14:53 59.56039 31.91481 19185 ft 481 kts 110°
2026-05-07 14:53 59.55111 31.97835 19544 ft 484 kts 110°
2026-05-07 14:53 59.54102 32.04087 19882 ft 484 kts 116°
2026-05-07 14:53 59.52641 32.10071 20230 ft 481 kts 126°
2026-05-07 14:54 59.50756 32.15473 20547 ft 477 kts 135°
2026-05-07 14:54 59.48502 32.20234 20863 ft 474 kts 142°
2026-05-07 14:54 59.46144 32.24809 21214 ft 477 kts 142°
2026-05-07 14:54 59.43784 32.29391 21560 ft 479 kts 142°
2026-05-07 14:55 59.41407 32.34017 21903 ft 482 kts 142°
2026-05-07 14:55 59.39020 32.38674 22232 ft 484 kts 142°
2026-05-07 14:55 59.36616 32.43354 22563 ft 487 kts 142°
2026-05-07 14:55 59.34200 32.48043 22823 ft 489 kts 143°
2026-05-07 14:56 59.31817 32.52659 23305 ft 487 kts 143°
2026-05-07 14:56 59.29401 32.57323 23694 ft 487 kts 143°
2026-05-07 14:56 59.26983 32.61974 23957 ft 488 kts 143°
2026-05-07 14:56 59.24559 32.66630 24289 ft 487 kts 143°
2026-05-07 14:57 59.22135 32.71272 24700 ft 485 kts 143°
2026-05-07 14:57 59.19719 32.75881 25097 ft 484 kts 143°
2026-05-07 14:57 59.17315 32.80459 25473 ft 483 kts 143°
2026-05-07 14:57 59.14935 32.84983 25875 ft 481 kts 143°
2026-05-07 14:58 59.12536 32.89536 26287 ft 480 kts 144°
2026-05-07 14:58 59.10141 32.94077 26689 ft 479 kts 144°
2026-05-07 14:58 59.07752 32.98603 27108 ft 478 kts 144°
2026-05-07 14:58 59.05370 33.03113 27533 ft 476 kts 144°
2026-05-07 14:59 59.02995 33.07599 27966 ft 475 kts 144°
2026-05-07 14:59 59.00626 33.12058 28392 ft 474 kts 144°
2026-05-07 14:59 58.98287 33.16444 28813 ft 472 kts 144°
2026-05-07 14:59 58.95910 33.20894 29245 ft 471 kts 144°
2026-05-07 15:00 58.93553 33.25295 29686 ft 470 kts 144°
2026-05-07 15:00 58.91189 33.29705 30108 ft 468 kts 145°
2026-05-07 15:00 58.88873 33.34011 30452 ft 467 kts 145°
2026-05-07 15:00 58.86527 33.38373 30795 ft 467 kts 145°
2026-05-07 15:01 58.84185 33.42722 31140 ft 466 kts 145°
2026-05-07 15:01 58.81837 33.47066 31322 ft 469 kts 144°
2026-05-07 15:01 58.79467 33.51432 31562 ft 470 kts 145°
2026-05-07 15:01 58.77094 33.55794 31869 ft 470 kts 145°
2026-05-07 15:02 58.74730 33.60141 32196 ft 470 kts 145°
2026-05-07 15:02 58.72363 33.64494 32544 ft 469 kts 145°
2026-05-07 15:02 58.70001 33.68834 32905 ft 469 kts 145°
2026-05-07 15:02 58.67664 33.73115 33231 ft 468 kts 145°
2026-05-07 15:03 58.65303 33.77431 33562 ft 467 kts 145°
2026-05-07 15:03 58.62943 33.81729 33912 ft 466 kts 145°
2026-05-07 15:03 58.60585 33.86014 34155 ft 466 kts 145°
2026-05-07 15:03 58.58218 33.90309 34312 ft 469 kts 144°
2026-05-07 15:04 58.55835 33.94624 34488 ft 471 kts 144°
2026-05-07 15:04 58.53445 33.98936 34740 ft 472 kts 144°
2026-05-07 15:04 58.51081 34.03193 34991 ft 472 kts 144°
2026-05-07 15:04 58.48688 34.07494 35225 ft 472 kts 144°
2026-05-07 15:05 58.46298 34.11789 35482 ft 471 kts 144°
2026-05-07 15:05 58.43906 34.16082 35730 ft 471 kts 144°
2026-05-07 15:05 58.41511 34.20370 35965 ft 471 kts 144°
2026-05-07 15:05 58.39114 34.24649 36205 ft 471 kts 144°
2026-05-07 15:06 58.36716 34.28916 36396 ft 471 kts 143°
2026-05-07 15:06 58.34347 34.33128 36582 ft 471 kts 143°
2026-05-07 15:06 58.31946 34.37391 36788 ft 471 kts 143°
2026-05-07 15:06 58.29541 34.41657 36945 ft 472 kts 143°
2026-05-07 15:07 58.24693 34.50225 36971 ft 479 kts 143°
2026-05-07 15:07 58.19785 34.58828 36967 ft 480 kts 144°
2026-05-07 15:08 58.14768 34.67037 36939 ft 477 kts 147°
2026-05-07 15:08 58.09606 34.75008 36965 ft 478 kts 147°
2026-05-07 15:09 58.04452 34.82971 36954 ft 478 kts 147°
2026-05-07 15:09 57.99337 34.91015 36957 ft 479 kts 146°
2026-05-07 15:10 57.94257 34.99035 36962 ft 479 kts 146°
2026-05-07 15:10 57.89123 35.07053 36914 ft 479 kts 146°
2026-05-07 15:11 57.83975 35.15032 36929 ft 479 kts 146°
2026-05-07 15:11 57.78821 35.22982 36937 ft 479 kts 146°
2026-05-07 15:12 57.73686 35.30881 36940 ft 480 kts 146°
2026-05-07 15:12 57.68524 35.38799 36943 ft 480 kts 146°
2026-05-07 15:13 57.64217 35.45389 36937 ft 480 kts 146°
2026-05-07 15:13 57.59039 35.53284 36947 ft 479 kts 146°
2026-05-07 15:14 57.53874 35.61170 36957 ft 479 kts 146°
2026-05-07 15:14 57.48711 35.69017 36942 ft 478 kts 146°
2026-05-07 15:15 57.43578 35.76781 36940 ft 478 kts 146°
2026-05-07 15:15 57.38414 35.84568 36913 ft 478 kts 146°
2026-05-07 15:16 57.33251 35.92324 36951 ft 475 kts 146°
2026-05-07 15:16 57.28124 36.00017 36953 ft 473 kts 146°
2026-05-07 15:17 57.23032 36.07618 36920 ft 472 kts 146°
2026-05-07 15:17 57.17919 36.15200 36907 ft 471 kts 146°
2026-05-07 15:18 57.12806 36.22766 36921 ft 470 kts 146°
2026-05-07 15:18 57.07688 36.30313 36477 ft 470 kts 146°
2026-05-07 15:19 57.05155 36.34037 35041 ft 475 kts 146°
2026-05-07 15:19 57.02554 36.37847 33587 ft 480 kts 147°
2026-05-07 15:19 56.99924 36.41670 32007 ft 483 kts 147°
2026-05-07 15:19 56.97275 36.45497 30427 ft 485 kts 147°
2026-05-07 15:20 56.94601 36.49341 28584 ft 488 kts 146°
2026-05-07 15:20 56.91924 36.53180 26630 ft 491 kts 146°
2026-05-07 15:20 56.89217 36.57057 24624 ft 494 kts 146°
2026-05-07 15:20 56.86500 36.60957 22832 ft 494 kts 146°
2026-05-07 15:21 56.83888 36.64744 22030 ft 471 kts 146°
2026-05-07 15:21 56.81409 36.68369 21728 ft 440 kts 146°
2026-05-07 15:21 56.79092 36.71758 21561 ft 410 kts 146°
2026-05-07 15:21 56.76914 36.74923 21091 ft 391 kts 147°
2026-05-07 15:22 56.74802 36.77951 20358 ft 382 kts 147°
2026-05-07 15:22 56.72718 36.80916 19603 ft 376 kts 148°
2026-05-07 15:22 56.70770 36.84074 18851 ft 374 kts 141°
2026-05-07 15:22 56.68954 36.87339 18118 ft 370 kts 141°
2026-05-07 15:23 56.67139 36.90612 17292 ft 365 kts 141°
2026-05-07 15:23 56.65350 36.93849 16489 ft 360 kts 141°
2026-05-07 15:23 56.63585 36.97043 15702 ft 356 kts 141°
2026-05-07 15:23 56.61835 37.00200 14958 ft 352 kts 141°
2026-05-07 15:24 56.60106 37.03310 14233 ft 348 kts 141°
2026-05-07 15:24 56.58391 37.06386 13502 ft 344 kts 142°
2026-05-07 15:24 56.56690 37.09431 12707 ft 341 kts 141°
2026-05-07 15:24 56.55015 37.12430 12117 ft 332 kts 142°
2026-05-07 15:25 56.53426 37.15293 11818 ft 315 kts 142°
2026-05-07 15:25 56.51745 37.17652 11437 ft 297 kts 158°
2026-05-07 15:25 56.49906 37.19126 11164 ft 289 kts 171°
2026-05-07 15:25 56.47960 37.19958 10914 ft 287 kts 175°
2026-05-07 15:26 56.46008 37.20747 10674 ft 287 kts 174°
2026-05-07 15:26 56.44058 37.21543 10427 ft 286 kts 174°
2026-05-07 15:26 56.42114 37.22336 10185 ft 285 kts 174°
2026-05-07 15:26 56.40181 37.23123 9946 ft 285 kts 174°
2026-05-07 15:27 56.38273 37.23901 9768 ft 284 kts 174°
2026-05-07 15:27 56.36341 37.24690 9571 ft 283 kts 174°
2026-05-07 15:27 56.34420 37.25473 9331 ft 283 kts 174°
2026-05-07 15:27 56.32494 37.26255 9034 ft 281 kts 174°
2026-05-07 15:28 56.30587 37.27028 8743 ft 281 kts 174°
2026-05-07 15:28 56.28689 37.27795 8452 ft 278 kts 174°
2026-05-07 15:28 56.26804 37.28560 8165 ft 277 kts 174°
2026-05-07 15:28 56.24931 37.29324 7881 ft 276 kts 173°
2026-05-07 15:29 56.23068 37.30176 7568 ft 275 kts 171°
2026-05-07 15:29 56.21224 37.31092 7271 ft 273 kts 170°
2026-05-07 15:29 56.19438 37.32012 7141 ft 261 kts 170°
2026-05-07 15:29 56.17822 37.33303 7018 ft 260 kts 146°
2026-05-07 15:30 56.16794 37.36006 6845 ft 265 kts 108°
2026-05-07 15:30 56.16790 37.39266 6622 ft 269 kts 77°
2026-05-07 15:30 56.17250 37.42534 6358 ft 269 kts 75°
2026-05-07 15:30 56.17741 37.45753 6074 ft 267 kts 75°
2026-05-07 15:31 56.18241 37.48957 5801 ft 265 kts 75°
2026-05-07 15:31 56.18737 37.52140 5520 ft 263 kts 75°
2026-05-07 15:31 56.19129 37.55348 5245 ft 260 kts 88°
2026-05-07 15:31 56.18951 37.58542 4977 ft 255 kts 110°
2026-05-07 15:32 56.18202 37.61369 4865 ft 249 kts 129°
2026-05-07 15:32 56.17054 37.63656 4742 ft 246 kts 139°
2026-05-07 15:32 56.15867 37.65819 4621 ft 246 kts 139°
2026-05-07 15:32 56.14668 37.68013 4508 ft 246 kts 139°
2026-05-07 15:33 56.13470 37.70205 4376 ft 245 kts 139°
2026-05-07 15:33 56.12292 37.72366 4262 ft 238 kts 138°
2026-05-07 15:33 56.11139 37.74485 4159 ft 235 kts 138°
2026-05-07 15:33 56.09924 37.76297 4045 ft 219 kts 158°
2026-05-07 15:34 56.08525 37.76990 3933 ft 203 kts 183°
2026-05-07 15:34 56.07175 37.76627 3770 ft 194 kts 202°
2026-05-07 15:34 56.05933 37.75900 3634 ft 185 kts 202°
2026-05-07 15:34 56.04731 37.75218 3486 ft 173 kts 202°
2026-05-07 15:35 56.03646 37.74609 3333 ft 155 kts 202°
2026-05-07 15:35 56.02693 37.73934 3196 ft 141 kts 216°
2026-05-07 15:35 56.01982 37.72794 3090 ft 136 kts 235°
2026-05-07 15:35 56.01605 37.71256 2994 ft 137 kts 255°
2026-05-07 15:36 56.01331 37.69621 2883 ft 137 kts 254°
2026-05-07 15:36 56.01070 37.67981 2769 ft 137 kts 255°
2026-05-07 15:36 56.00818 37.66337 2669 ft 136 kts 255°
2026-05-07 15:36 56.00573 37.64700 2601 ft 137 kts 256°
2026-05-07 15:37 56.00330 37.63064 2548 ft 136 kts 256°
2026-05-07 15:37 56.00087 37.61415 2465 ft 139 kts 255°
2026-05-07 15:37 55.99849 37.59788 2378 ft 136 kts 255°
2026-05-07 15:37 55.99617 37.58141 2224 ft 137 kts 256°
2026-05-07 15:38 55.99393 37.56506 2065 ft 135 kts 254°
2026-05-07 15:38 55.99142 37.54874 1875 ft 137 kts 255°
2026-05-07 15:38 55.98901 37.53246 1701 ft 135 kts 255°
2026-05-07 15:38 55.98662 37.51622 1511 ft 135 kts 256°
2026-05-07 15:39 55.98426 37.49988 1322 ft 135 kts 256°
2026-05-07 15:39 55.98168 37.48338 1146 ft 138 kts 255°
2026-05-07 15:39 55.97921 37.46640 964 ft 142 kts 256°
2026-05-07 15:39 55.97661 37.44931 763 ft 142 kts 254°
2026-05-07 15:40 55.97404 37.43254 644 ft 136 kts 255°